083  
ASUS41 KGYX 231110  
RWRGYX  
WEATHER ROUNDUP FOR MAINE AND NEW HAMPSHIRE  
NATIONAL WEATHER SERVICE GRAY ME  
700 AM EDT MON APR 23 2018  
 
MEZ002-005-006-010-012-015-018-020-021-024-026-027-029-231200-  
MAINE  
 
CITY SKY/WX TMP DP RH WIND PRES REMARKS
 
PORTLAND FAIR 37 25 61 W7 30.46R  
SANFORD FAIR 32 28 85 SW3 30.47R  
BAR HARBOR FAIR 32 24 72 CALM 30.44R  
WISCASSET FAIR 30 25 81 CALM 30.47R  
ROCKLAND FAIR 33 25 72 W5 30.44R  
FRYEBURG FAIR 28 26 92 CALM 30.46R  
LEWISTONAUBURN FAIR 32 24 72 CALM 30.46R  
AUGUSTA FAIR 36 19 50 W3 30.45R  
WATERVILLE FAIR 32 23 69 CALM 30.42R  
BANGOR FAIR 32 24 72 CALM 30.43R  
GREENVILLE N/A 34 16 47 CALM 30.38R  
MILLINOCKET FAIR 32 22 66 W3 30.42R  
HOULTON FAIR 28 23 81 CALM 30.38R  
PRESQUE ISLE FAIR 28 24 85 CALM 30.40R  
FRENCHVILLE FAIR 34 16 47 W7 30.37R  
CARIBOU FAIR 29 17 61 CALM 30.38R  

 
 
NHZ002-005-008-009-011-012-014-231200-  
NEW HAMPSHIRE  
 
CITY SKY/WX TMP DP RH WIND PRES REMARKS
 
PORTSMOUTH SUNNY 36 29 74 W3 30.46R  
ROCHESTER FAIR 34 26 72 NW6 30.46R  
NASHUA FAIR 32 27 81 CALM 30.49R  
MANCHESTER FAIR 37 24 59 CALM 30.47R  
CONCORD FAIR 31 24 75 CALM 30.49R  
LACONIA FAIR 32 25 75 W3 30.48R  
PLYMOUTH FAIR 27 26 96 CALM 30.50R  
BERLIN FAIR 25 22 88 CALM 30.46R  
WHITEFIELD FAIR 24 22 91 CALM 30.46R  
JAFFREY FAIR 27 24 89 CALM 30.46R  
KEENE FAIR 27 25 92 S5 30.51R  
LEBANON FAIR 27 20 75 CALM 30.49R  
MT WASHINGTON MOSUNNY 27 9 46 NW15 N/A WCI 15  

 
 
VTZ005-007-008-231200-  
VERMONT  
 
CITY SKY/WX TMP DP RH WIND PRES REMARKS
 
ST JOHNSBURY N/A 26 23 88 MISG 30.47R  
MONTPELIER FAIR 27 23 85 CALM 30.50R  
BURLINGTON FAIR 33 25 72 CALM 30.48R  

 
 
MAZ007-012-024-CTZ003-RIZ002-NYZ038-NYZ072-231200-  
SOUTHERN NEW ENGLAND AND NY  
 
CITY SKY/WX TMP DP RH WIND PRES REMARKS
 
BOSTON FAIR 46 20 35 NW8 30.48R  
WORCESTER FAIR 42 21 43 CALM 30.46R  
NANTUCKET FAIR 44 40 85 N10 30.44R  
PROVIDENCE FAIR 41 29 62 CALM 30.48R  
HARTFORD FAIR 35 25 66 N5 30.49R  
ALBANY FAIR 31 24 75 E3 30.49R  
NEW YORK CITY FAIR 46 37 71 NE8 30.45R  

 
 
ANZ081-ANZ082-ANZ150-NHZ014-MEZ023>029-231200-  
COASTAL MARINE OBSERVATIONS  
 
STATION/POSITION TIME TEMP WIND PRES WAVE
 
AIR SEA DIR/SP/G HT/PER  
(UTC) (F) (DEG/KT/KT) (MB) (FT/S)  
MOUNT DESERT ROC 1100 41 290/ 7/ 7 1030.5R  
JEFFREYS LEDGE 1006 42 N/A 1/14  
CASHES LEDGE BUO 1050 42 41 1031.0R 1/15  

 
   
............KEY...........
 
 
WCI - WIND CHILL  
TC - TEMPERATURE IN CELSIUS  
VSB - VISIBILITY
IN MILES  
HX - HEAT INDEX  
FAIR- INDICATES FEW OR NO CLOUDS BELOW 12,000 FT, WITH NO  
SIGNIFICANT WEATHER AND/OR S TO VISIBILITY.  
 
 
 
CLICK HERE TO GO TO PREVIOUS BULLETINS.

The Nexlab ME Page
The Nexlab NH Page Main Text Page